Regional Weather Roundup
Issued by NWS

Home | Current Version | Previous Version | Graphics & Text | Print | Product List | Glossary Off
Versions: 1 2 3 4 5 6 7 8 9 10 11 12 13 14 15 16 17 18 19 20 21 22 23 24 25 26 27 28 29 30 31 32 33 34 35 36 37 38 39 40 41 42 43 44 45 46 47 48 49 50

000
ASUS43 KTOP 030459
RWRKS

WEATHER ROUNDUP FOR KANSAS
NATIONAL WEATHER SERVICE GOODLAND KS
1100 PM CST FRI DEC 02 2016

NOTE:  "FAIR" INDICATES FEW OR NO CLOUDS BELOW 12,000 FEET WITH NO
SIGNIFICANT WEATHER AND/OR OBSTRUCTIONS TO VISIBILITY.

KSZ001>006-013>018-027>032-041>047-030600-
NORTHWEST KANSAS

CITY           SKY/WX    TMP DP  RH WIND       PRES   REMARKS
HAYS           CLOUDY    31  25  78 CALM      30.32R
$$

KSZ061>065-074>080-084>089-030600-
SOUTHWEST KANSAS

CITY           SKY/WX    TMP DP  RH WIND       PRES   REMARKS
DODGE CITY     CLOUDY    37  21  52 NE3       30.29R
ELKHART          N/A     38  10  31 E13         N/A  WCI  30
GARDEN CITY    CLOUDY    36  19  50 E8        30.27S
GREAT BEND     CLOUDY    34  23  64 N6        30.32R
LIBERAL        CLOUDY    41  16  36 E15       30.25F
$$

KSZ066>073-081>083-090>101-030600-
SOUTHEAST KANSAS

CITY           SKY/WX    TMP DP  RH WIND       PRES   REMARKS
CHANUTE        CLOUDY    44  27  51 NE9       30.31R
COFFEYVILLE    CLOUDY    46  29  51 NE8       30.29S
HUTCHINSON     CLOUDY    39  25  57 CALM      30.32R
MEDICINE LODGE   N/A     41  24  51 N6        30.29R
NEWTON         CLOUDY    39  25  57 E6        30.32R
PARSONS        MOCLDY    45  29  53 NE6       30.30S
WICHITA JABRA  CLOUDY    40  27  59 NE5       30.30R
WINFIELD       CLOUDY    45  25  45 NE10      30.28
$$

KSZ007>012-019>026-033>040-048>060-102>105-030600-
NORTHEAST KANSAS

CITY           SKY/WX    TMP DP  RH WIND       PRES   REMARKS
CONCORDIA      CLOUDY    31  25  78 E3        30.34R
LAWRENCE       PTCLDY    29  25  85 CALM      30.36R
MANHATTAN      CLOUDY    30  25  81 CALM      30.34R
$$




USA.gov is the U.S. government's official web portal to all federal, state and local government web resources and services.